STARLINK-33715, 63441

Orbit data source: Space-Track

STARLINK-33715, 63441 is a payload satellite owned by SpaceX/Seattle (US) in LEO that was launched on Fri, 04 Apr 2025 UTC via an FALCON 9 launch vehicle from the Air Force Western Test Range (AFWTR). Payload-class satellites include a variety of spacecraft equipped with specific instruments for various scientific and technological missions. These include communications satellites like Starlink; space stations such as the ISS; scientific satellites like the Hubble; Earth observation satellites from companies like Planet Labs, Umbra, and HawkEye 360; GPS; miniature CubeSats for education and research; and military/defense satellites.

Loading next visibility...
Identifier
63441, 2025-069J
Orbit
LEO
Country
Flag of USUS
Related business
Manufacturer
SpaceX/Seattle
Mission
Operational Commercial Communications
Bus & Motor
STARLINK V2MO, Unknown motor
Mass
575 kg wet, ~530 kg dry
Launch date (UTC)
2025-04-04 (1 year ago)
Launch vehicle
FALCON 9
Launch site
Air Force Western Test Range (AFWTR)
Object type
Payload
Rocket body
Debris
Shape & HBR
Box + 2 Pan, 17.7 m
Radar Cross Section
36.964 m², Large (>1 m²)

Expand to show TLE details & history
Last TLE update: 1 day ago

TLE from 1 day ago
0 STARLINK-33715
1 63441U 25069J   26144.28731350  .00029030  00000-0  67388-3 0  9995
2 63441  53.1591 148.8734 0001093  84.1787 275.9343 15.42166458 65014
Epoch: 2026-05-24T06:53Z
TLE epoch observation values (Epoch: 2026-05-24T06:53:43.886Z)
Latitude
-0.00006°
Longitude
163.54887°
Altitude
440.544 km
Speed
7.649 km/s
True Right ascension
09h 55m 29s
True Declination
0° 00' 00"
Sunlit
Object was in daylight at epoch
Visualization orbit readout
Latitude
Unknown
Longitude
Unknown
Altitude
Unknown
Speed
Unknown
Apparent Right ascension
Unknown
Apparent Declination
Unknown
Sunlit
N/A
Visualization observer readout
Local Sidereal Time
03:04:53
Azimuth
Unknown
Elevation
Unknown
Doppler factor
Unknown
Orbital elements
Apogee altitude
440.72 km
Perigee altitude
439.229 km
Semi-major axis
6,818.111 km
Eccentricity
0.00011
Inclination
53.1591°
RAAN
148.8734°
Arg. of periapsis
84.1787°
True anomaly
275.92184°
Mean anomaly
275.9343°
Eccentric anomaly
275.92807°
Mean motion
3.8552 °/min
Orbital period
93.38 mins
BSTAR
0.00067388
Loading maneuver chart data...
Computing Atmospheric mass density...
Loading historical data...
Loading historical data...
Loading historical data...
Loading historical data...
Loading historical data...
Loading historical data...
Loading historical data...

Documentation

Showing up to 5 results
|